Terug naar catalogus

STARLINK-37132

ActiefCommunicatieVLEO
NORAD 68233·PAYLOAD·🇺🇸 United States

Gelanceerd Mar 17, 2026 vanaf Vandenberg Space Force Base

Loading…

Volgende Passages (komende 24 uur)

TLE

VersSource: CelesTrak SupGP

Epoch: Sep 14, 2026, 21:32 UTC

1 68233C 26054B   26257.89770833 -.00177110  00000+0 -52317-2 0  2571
2 68233  53.1565 127.7479 0001362  78.8280 327.1158 15.34486398    10

Volg STARLINK-37132 in realtime met AllMySat

Download on the App Store